Flag for Switzerland Weather past 2 weeks in La-Chaux-de-Fonds, Neuchâtel, Switzerland

Now
30 °F

Clear.


Feels Like: 23 °F
Forecast: 38 / 46 °F
Wind: 7 mph from Southwest

Location: Les Eplatures

Current Time: Dec 22, 2014 at 11:08:48 PM

Latest Report: Dec 22, 2014 at 10:20 PM


Visibility: 10 mi

Pressure: 30.39 "Hg

Humidity: 100%

Dew point: 30 °F

Location of La-Chaux-de-FondsLocation

Historic Weather in La-Chaux-de-Fonds — Graph

°F

La-Chaux-de-Fonds temperature yesterday

Maximum temperature yesterday: 36 °F (at 12:50 PM)
Minimum temperature yesterday: 27 °F (at 9:50 PM)
Average temperature yesterday: 31 °F

Past Weeks' High & Low Weather Summary

 TemperatureHumidityPressure
High48 °F (Dec 13, 1:50 PM)100% (Dec 7, 9:20 PM)30.51 "Hg (Dec 7, 9:20 PM)
Low14 °F (Dec 10, 1:50 AM)57% (Dec 13, 11:50 AM)29.83 "Hg (Dec 12, 6:50 PM)
Average36 °F95%30.13 "Hg
* Reported Dec 7 9:20 PM — Dec 22 9:20 PM, La-Chaux-de-Fonds, Weather by CustomWeather, © 2014

Note: Actual official high and low records may vary slightly from our data, if they occured in-between our weather recording intervals... More about our weather records

Advertising

La-Chaux-de-Fonds weather history for previous 24 hours

 ConditionsComfort  
Time TempWeatherWind HumidityBarometerVisibility
9:20 PM
Dec 22
36 °FClear.5 mph100%30.39 "HgN/A
8:50 PM34 °FClear.2 mph100%30.39 "Hg10 mi
8:20 PM39 °FClear.3 mph100%30.39 "HgN/A
7:50 PM36 °FClear.2 mph100%30.39 "Hg10 mi
7:20 PM36 °FClear.3 mph100%30.36 "Hg10 mi
6:50 PM36 °FPassing clouds.3 mph100%30.39 "HgN/A
6:20 PM36 °FClear.3 mph100%30.39 "Hg10 mi
5:50 PM36 °FClear.2 mph100%30.36 "Hg10 mi
5:20 PM37 °FSunny.3 mph100%30.39 "Hg10 mi
4:50 PM37 °FSunny.2 mph100%30.39 "Hg10 mi
4:20 PM41 °FPassing clouds.5 mph100%30.39 "HgN/A
3:50 PM46 °FPassing clouds.8 mph100%30.39 "HgN/A
3:20 PM46 °FPassing clouds.8 mph100%30.39 "HgN/A
2:50 PM48 °FPassing clouds.9 mph100%30.39 "HgN/A
2:20 PM48 °FPassing clouds.14 mph100%30.39 "HgN/A
1:50 PM48 °FSunny.8 mph100%30.39 "Hg10 mi
1:20 PM48 °FSunny.10 mph100%30.39 "Hg10 mi
12:50 PM46 °FPassing clouds.7 mph100%30.39 "HgN/A
12:20 PM45 °FSunny.7 mph100%30.42 "Hg10 mi
11:50 AM43 °FPassing clouds.6 mph100%30.42 "HgN/A
11:20 AM37 °FSunny.9 mph100%30.42 "Hg10 mi
10:50 AM36 °FSunny.8 mph100%30.42 "Hg10 mi
10:20 AM36 °FSunny.6 mph100%30.42 "Hg10 mi
9:50 AM34 °FChilly.6 mph100%30.42 "HgN/A
9:20 AM36 °FSunny.6 mph100%30.42 "Hg10 mi
8:50 AM32 °FClear.5 mph100%30.39 "Hg10 mi
8:20 AM32 °FClear.5 mph100%30.39 "Hg10 mi
7:50 AM32 °FClear.5 mph100%30.39 "Hg10 mi
7:20 AM30 °FClear.5 mph100%30.39 "Hg10 mi
6:20 AM27 °FClear.5 mph100%30.39 "Hg10 mi
5:50 AM25 °FClear.5 mph100%30.39 "Hg10 mi
5:20 AM27 °FPassing clouds.3 mph100%30.42 "HgN/A
4:50 AM28 °FClear.3 mph100%30.42 "Hg10 mi
4:20 AM27 °FChilly.5 mph100%30.42 "HgN/A
3:50 AM27 °FHeavy snow. Low clouds.6 mph100%30.42 "Hg0 mi
3:20 AM27 °FHeavy snow. Ice fog.6 mph100%30.42 "Hg0 mi
2:50 AM28 °FIce fog.6 mph100%30.45 "Hg1 mi
2:20 AM27 °FPassing clouds.5 mph100%30.45 "HgN/A
1:50 AM27 °FClear.3 mph100%30.45 "Hg10 mi
1:20 AM25 °FClear.1 mph100%30.45 "Hg10 mi
12:50 AM28 °FClear.2 mph100%30.45 "Hg10 mi
12:20 AM27 °FClear.3 mph100%30.45 "Hg10 mi
11:50 PM
Dec 21
27 °FClear.6 mph100%30.45 "Hg10 mi
11:20 PM27 °FClear.5 mph100%30.48 "Hg10 mi
Weather by CustomWeather, © 2014

See weather overviewHow to use our weather pages